Skip Page Navigation
NASA JPL Caltech
NASA Logo - Jet Propulsion Laboratory + View the NASA Portal
+ Center for Near-Earth Object Studies
JPL Home Earth Solar System Stars & Galaxies Technology
JPL Solar System Dynamics
BODIES ORBITS EPHEMERIDES TOOLS PHYSICAL DATA DISCOVERY FAQ SITE MAP
JPL Small-Body Database Browser
Search: [ help ]  
305337 (2008 AM107)
Classification: Main-belt Asteroid          SPK-ID: 2305337
Ephemeris | Orbit Diagram | Orbital Elements | Mission Design | Physical Parameters | Discovery Circumstances | Close-Approach Data ]

[ hide orbit diagram ]

For accurate long-term ephemerides, please instead use our Horizons system.This orbit viewer was implemented using two-body methods, and hence should not be used for determining accurate long-term trajectories (over several years or decades) or planetary encounter circumstances.


[ revert to old Java-based viewer ]

Orbital Elements at Epoch 2459000.5 (2020-May-31.0) TDB
Reference: JPL 11 (heliocentric ecliptic J2000)
 Element Value Uncertainty (1-sigma)   Units 
e .09061169790017655 6.4712e-08  
a 2.774943335055128 2.6418e-08 au
q 2.523501007889005 1.8117e-07 au
i 3.632581956529102 5.0039e-06 deg
node 271.3024740295671 0.00011792 deg
peri 97.77168154903647 0.00012325 deg
M 342.0126691693365 3.1912e-05 deg
tp 2459084.861409507639
(2020-Aug-23.36140951)
0.00014939 TDB
period 1688.41656989914
4.62
2.4111e-05
6.601e-08
d
yr
n .2132175236952958 3.0448e-09 deg/d
Q 3.026385662221252 2.8812e-08 au
  Orbit Determination Parameters
   # obs. used (total)      232  
   data-arc span      6533 days (17.89 yr)  
   first obs. used      2002-12-04  
   last obs. used      2020-10-23  
   planetary ephem.      DE431  
   SB-pert. ephem.      SB431-N16  
   condition code      0  
   norm. resid. RMS      .56129  
   source      ORB  
   producer      Otto Matic  
   solution date      2020-Nov-11 19:12:25  

Additional Information
 Earth MOID = 1.52588 au 
 Jupiter MOID = 2.42247 au 
 T_jup = 3.327 
[ show covariance matrix ]

Ephemeris | Orbit Diagram | Orbital Elements | Mission Design | Physical Parameters | Discovery Circumstances | Close-Approach Data ]

Physical Parameter Table
Parameter Symbol Value Units Sigma Reference Notes
absolute magnitude H 16.5   n/a MPO446455  

305337 (2008 AM107)          Discovered 2008-Jan-15 by Spacewatch at Kitt Peak
Reference: 20111110/Numbers.arcLast Updated: 2011-11-14

[ show close-approach data ]
Ephemeris | Orbit Diagram | Orbital Elements | Mission Design | Physical Parameters | Discovery Circumstances | Close-Approach Data ]
ABOUT SSD CREDITS/AWARDS PRIVACY/COPYRIGHT GLOSSARY LINKS
FirstGov 2020-Nov-27 23:49 UT
(server date/time)  
NASA Home Page
Site Manager:   Ryan S. Park
Webmaster  Alan B. Chamberlin